Showing default

ETIHAD-SAT, 63226

Orbit data source: Space-Track

ETIHAD-SAT, 63226 is a payload satellite owned by Rashid Space Ctr (AE) in SSO that was launched on Sat, 15 Mar 2025 UTC via an FALCON 9 launch vehicle from the Air Force Western Test Range (AFWTR). Payload-class satellites include a variety of spacecraft equipped with specific instruments for various scientific and technological missions. These include communications satellites like Starlink; space stations such as the ISS; scientific satellites like the Hubble; Earth observation satellites from companies like Planet Labs, Umbra, and HawkEye 360; GPS; miniature CubeSats for education and research; and military/defense satellites.

Loading next visibility...
Identifier
63226, 2025-052S
Orbit
SSO
Country
Flag of AEAE / UAE
Related business
Manufacturer
MBRSC/SATREC
Mission
Operational Civil Radar Imaging
Bus & Motor
ETIHAD, Unknown motor
Mass
220 kg wet, ~200 kg dry
Launch date (UTC)
2025-03-15 (1 year ago)
Launch vehicle
FALCON 9
Launch site
Air Force Western Test Range (AFWTR)
Object type
Payload
Rocket body
Debris
Shape & HBR
Box + 2 Pan, 0.9 m
Radar Cross Section
2.585 m², Large (>1 m²)

Expand to show TLE details & history
Last TLE update: 14 hours ago

TLE from 14 hours ago
0 ETIHAD-SAT
1 63226U 25052S   26219.69596802  .00002108  00000-0  94118-4 0  9996
2 63226  97.3889 111.3756 0004290 342.7276  17.3814 15.22452897 77671
Epoch: 2026-08-07T16:42Z
TLE epoch observation values (Epoch: 2026-08-07T16:42:11.636Z)
Latitude
-0.00004°
Longitude
-95.39084°
Altitude
498.723 km
Speed
7.617 km/s
True Right ascension
07h 25m 30s
True Declination
0° 00' 00"
Sunlit
Object was in daylight at epoch
Visualization orbit readout
Latitude
Unknown
Longitude
Unknown
Altitude
Unknown
Speed
Unknown
Apparent Right ascension
Unknown
Apparent Declination
Unknown
Sunlit
N/A
Visualization observer readout
Local Sidereal Time
21:02:48
Azimuth
Unknown
Elevation
Unknown
Doppler factor
Unknown
Orbital elements
Apogee altitude
498.355 km
Perigee altitude
492.458 km
Semi-major axis
6,873.543 km
Eccentricity
0.00043
Inclination
97.3889°
RAAN
111.3756°
Arg. of periapsis
342.7276°
True anomaly
17.39609°
Mean anomaly
17.3814°
Eccentric anomaly
17.38875°
Mean motion
3.80866 °/min
Orbital period
94.52 mins
BSTAR
0.000094118
Loading maneuver chart data...
Computing Atmospheric mass density...
Loading historical data...
Loading historical data...
Loading historical data...
Loading historical data...
Loading historical data...
Loading historical data...
Loading historical data...

Documentation

Showing up to 5 results
|